Flag for Japan Weather past 2 weeks in Suzuka, Japan

Now
56 °F

Refreshingly cool.


Feels Like: 56 °F
Forecast: 48 / 66 °F
Wind: 3 mph from Northwest

Location: Tsu

Current Time: Apr 19, 2015 at 12:20:00 AM

Latest Report: Apr 18, 2015 at 11:00 PM


Visibility: N/A

Pressure: 30.09 "Hg

Humidity: 58%

Dew point: 41 °F

Location of SuzukaLocation

Historic Weather in Suzuka — Graph

°F

Suzuka temperature yesterday

Maximum temperature yesterday: 66 °F (at 5:00 PM)
Minimum temperature yesterday: 45 °F (at 6:00 AM)
Average temperature yesterday: 55 °F

Past Weeks' High & Low Weather Summary

 TemperatureHumidityPressure
High74 °F (Apr 4, 11:00 AM)98% (Apr 15, 2:00 AM)30.40 "Hg (Apr 15, 2:00 AM)
Low42 °F (Apr 8, 6:00 AM)30% (Apr 17, 4:00 PM)29.65 "Hg (Apr 15, 12:00 PM)
Average55 °F75%30.05 "Hg
* Reported Apr 3 11:00 PM — Apr 18 11:00 PM, Suzuka, Weather by CustomWeather, © 2015

Note: Actual official high and low records may vary slightly from our data, if they occured in-between our weather recording intervals... More about our weather records

Advertising

Suzuka weather history for previous 24 hours

 ConditionsComfort  
Time TempWeatherWind HumidityBarometerVisibility
11:00 PM
Sat, Apr 18
56 °FRefreshingly cool.3 mph58%30.09 "HgN/A
10:00 PM56 °FRefreshingly cool.7 mph60%30.09 "HgN/A
9:00 PM58 °FOvercast.3 mph54%30.09 "Hg12 mi
8:00 PM59 °FRefreshingly cool.6 mph50%30.06 "HgN/A
7:00 PM62 °FRefreshingly cool.2 mph50%30.05 "HgN/A
6:00 PM64 °FMild.2 mph48%30.03 "HgN/A
5:00 PM66 °FMild.2 mph47%30.04 "HgN/A
4:00 PM62 °FCool.9 mph64%30.05 "HgN/A
3:00 PM62 °FOvercast.12 mph52%30.06 "Hg12 mi
2:00 PM62 °FRefreshingly cool.5 mph46%30.09 "HgN/A
1:00 PM61 °FRefreshingly cool.6 mph44%30.11 "HgN/A
11:00 AM57 °FRefreshingly cool.6 mph55%30.16 "HgN/A
10:00 AM56 °FRefreshingly cool.6 mph49%30.18 "HgN/A
9:00 AM54 °FOvercast.5 mph46%30.18 "Hg6 mi
8:00 AM52 °FCool.3 mph55%30.15 "HgN/A
7:00 AM49 °FCool.3 mph60%30.15 "HgN/A
6:00 AM45 °FCool.5 mph69%30.13 "HgN/A
5:00 AM46 °FCool.5 mph71%30.12 "HgN/A
4:00 AM48 °FCool.3 mph64%30.11 "HgN/A
3:00 AM48 °FCool.2 mph62%30.11 "HgN/A
2:00 AM48 °FCool.3 mph60%30.10 "HgN/A
1:00 AM51 °FCool.10 mph50%30.09 "HgN/A
12:00 AM52 °FCool.12 mph46%30.07 "HgN/A
Weather by CustomWeather, © 2015

See weather overviewHow to use our weather pages